KOSEN 1
1 49402U 21102H   24097.85345730  .00004838  00000-0  29830-3 0  9990
2 49402  97.4331 147.8893 0020941 125.5104 234.8082 15.10216851132375
HO-113
1 50466U 21131B   24097.81345896  .00000618  00000-0  21263-3 0  9997
2 50466  98.5278 183.2285 0003697 356.0483   4.0675 14.39466812119732
Tevel-3
1 50988U 22002E   24097.82049297  .00062161  00000-0  11469-2 0  9998
2 50988  97.3877 171.1344 0004884 240.7139 119.3624 15.48894409123941
Tevel-8
1 50989U 22002F   24097.85559730  .00062483  00000-0  11578-2 0  9998
2 50989  97.3892 171.2578 0004811 238.7505 121.3275 15.48770539123945
Tevel-5
1 50998U 22002Q   24097.82099452  .00071333  00000-0  11913-2 0  9992
2 50998  97.3863 172.1294 0005545 234.2389 125.8348 15.51682292124015
Tevel-6
1 50999U 22002R   24097.82341359  .00071139  00000-0  11918-2 0  9998
2 50999  97.3859 172.1107 0005500 234.3751 125.6989 15.51595151124015
Tevel-1
1 51013U 22002AF  24097.84409518  .00061833  00000-0  11460-2 0  9992
2 51013  97.3869 171.0367 0004819 240.7321 119.3449 15.48767210123941
IRIS-A
1 51044U 22002BN  24097.43505226  .00014038  00000-0  51395-3 0  9991
2 51044  97.3919 164.3538 0005160 283.4025  76.6639 15.28132970123450
Tevel-7
1 51062U 22002CG  24097.84788836  .00062470  00000-0  11534-2 0  9999
2 51062  97.3889 171.2232 0004925 240.0213 120.0549 15.48873231123942
Tevel-4
1 51063U 22002CH  24097.81122344  .00062051  00000-0  11563-2 0  9990
2 51063  97.3890 171.1111 0004889 240.7288 119.3474 15.48609861123931
Tevel-2
1 51069U 22002CP  24097.81948391  .00061603  00000-0  11353-2 0  9993
2 51069  97.3876 171.1006 0004867 240.5194 119.5571 15.48930050123942
SO-115
1 51080U 22002DA  24097.48080617  .00137153  00000-0  14559-2 0  9992
2 51080  97.4144 178.6498 0006713 257.0863 102.9646 15.63602426124219
SO-114
1 51081U 22002DB  24097.49662820  .00153791  00000-0  15241-2 0  9991
2 51081  97.4146 178.8552 0006768 256.5975 103.4531 15.65296359124230
OreSat0
1 52017U 22026K   24097.27557570  .00043607  00000-0  97631-3 0  9996
2 52017  97.5024 108.8530 0017526 116.6144 243.6901 15.43169272114587
Planetum 1
1 52738U 22057G   24097.31115050  .00030298  00000-0  90203-3 0  9998
2 52738  97.5569 221.2797 0004802  47.7879 312.3770 15.34647112103522
Foresail-1
1 52766U 22057AL  24097.59035901  .00016373  00000-0  59196-3 0  9999
2 52766  97.5717 221.6469 0009821  27.5397 332.6361 15.28482987103504
SNUGLITE 2
1 52899U 22065F   24097.33243989  .00001343  00000-0  28644-3 0  9999
2 52899  98.1077 239.9315 0007961  26.1027 334.0574 14.60448567 93777
IO-117
1 53106U 22080B   24092.39201857 -.00000003  00000-0  00000-0 0  9993
2 53106  70.1401 219.1945 0008103 122.4070 237.7374  6.42557363 40333
SelfieSat
1 53951U 22057BC  24097.31133302  .00054524  00000-0  12423-2 0  9991
2 53951  97.5597 223.8584 0004416  22.8768 337.2675 15.42745933103669
FO-118
1 54684U 22167C   24097.81346024  .00020546  00000-0  81308-3 0  9995
2 54684  97.5952 241.2445 0010307  37.5115 322.6840 15.25431967 73403
SSS-2B
1 56184U 23054G   24097.85336957  .00023624  00000-0  69040-3 0  9995
2 56184  97.3786 355.5089 0010247  77.0518 283.1870 15.35240547 55176
CIRBE
1 56188U 23054L   24097.25378623  .00044235  00000-0  10264-2 0  9993
2 56188  97.3704 355.8942 0008593  72.3465 287.8720 15.42221180 55165
INSPIRE-Sat 7
1 56211U 23054AK  24097.44904927  .00045674  00000-0  10105-2 0  9995
2 56211  97.3753 357.1365 0011203  54.1457 306.0829 15.43610673 55255
RoseyCubesat 1
1 56212U 23054AL  24097.79323643  .00047420  00000-0  97380-3 0  9996
2 56212  97.3755 357.9202 0010873  52.7644 307.4596 15.45806242 55336
SO-120
1 56992U 23084BU  24097.76640724  .00021076  00000-0  89214-3 0  9999
2 56992  97.5228 216.6596 0013656 272.8626  87.1047 15.23121838 45296
MRC-100
1 56993U 23084BV  24097.29039823  .00025152  00000-0  10257-2 0  9999
2 56993  97.5227 216.3949 0013540 273.6416  86.3273 15.24345213 45246
UmKA 1 (RS40S)
1 57172U 23091G   24097.82165913  .00004973  00000-0  34039-3 0  9999
2 57172  97.6210 150.6167 0017028   9.9946 350.1616 15.06435180 42742
CubeBel-2 (EU11S)
1 57175U 23091K   24097.79519191  .00005773  00000-0  39137-3 0  9992
2 57175  97.6210 150.4873 0015772  23.9177 336.2780 15.06737604 42735
VERONIKA
1 58261U 23174F   24097.81277535  .00014143  00000-0  69972-3 0  9998
2 58261  97.4655 173.4149 0014118 132.3975 227.8456 15.17833127 22875
KAFASAT
1 58317U 23174BP  24097.82945369  .00018237  00000-0  84042-3 0  9991
2 58317  97.4599 173.7459 0012822 113.2556 247.0030 15.20256964 22902
ENSO
1 58470U 23185J   24097.86092073  .00012990  00000-0  59818-3 0  9995
2 58470  97.4337 165.4595 0014240 165.2592 194.9061 15.20340023 19296
EIRSAT-1
1 58472U 23185L   24097.85363526  .00014125  00000-0  64513-3 0  9990
2 58472  97.4332 165.4561 0014013 166.2315 193.9305 15.20605064 19297
SO-121
1 58567U 23174CY  24097.18288453  .00031405  00000-0  13727-2 0  9994
2 58567  97.4605 173.0997 0014581 126.8640 233.3935 15.21932512 22807
Clark sat-1 (AMBITIOUS)
1 58613U 98067WE  24097.76679496  .00816607  30523-3  19001-2 0  9996
2 58613  51.6231 296.3501 0009475 254.7409 105.2552 15.96413857 17349
SONATE-2
1 59112U 24043Q   24097.69702679  .00010655  00000-0  54776-3 0  9998
2 59112  97.4674 222.4642 0015991 180.7232 179.3981 15.16534301  4963
